Regional Weather Roundup
Issued by NWS Wakefield, VA

Home | Current Version | Previous Version | Graphics & Text | Print | Product List | Glossary On
Versions: 1 2 3 4 5 6 7 8 9 10 11 12 13 14 15 16 17 18 19 20 21 22 23 24 25 26 27
000
ASUS41 KAKQ 290515
RWRAKQ

REGIONAL WEATHER ROUNDUP
NATIONAL WEATHER SERVICE WAKEFIELD VA
100 AM EDT FRI APR 29 2016

Note: "fair" indicates few or no clouds below 12,000 feet with no
significant weather and/or obstructions to visibility. * = Denotes
station may not report precipitation (e.g., rain,snow,etc.),
thunder or fog.

VAZ042-051-052>054-056-290600-
NORTHERN VIRGINIA

CITY           SKY/WX    TMP DP  RH WIND       PRES   REMARKS
WASH NATIONAL  CLOUDY    48  45  89 NE9       30.01F
DULLES         CLOUDY    47  44  90 NE6       30.02S
FORT BELVOIR   CLOUDY    48  45  87 N6        30.02R
QUANTICO       CLOUDY    50  48  93 E9        30.02S FOG
FREDERICKSBRG* CLOUDY    50  50 100 NE5       29.99F FOG
STAFFORD*      CLOUDY    48  47  95 NE5       30.04S FOG
WARRENTON      CLOUDY    49  45  85 NE6       30.00S FOG
CULPEPER*      CLOUDY    49  49 100 CALM      30.01F FOG
MANASSAS*      CLOUDY    48  46  93 NE7       30.02R
LEESBURG*      CLOUDY    46  46 100 CALM      30.03R
WINCHESTER     CLOUDY    46  46 100 E5        30.00S FOG
FRONT ROYAL*   CLOUDY    46  46 100 N5        29.98F
LURAY*         CLOUDY    46  46 100 NE6       29.98F FOG
$$

VAZ048-049-060>072-079>083-290600-
CENTRAL AND SOUTH CENTRAL VIRGINIA

CITY           SKY/WX    TMP DP  RH WIND       PRES   REMARKS
RICHMOND       CLOUDY    52  50  93 N6        29.98R
CHESTERFIELD*  CLOUDY    55  43  62 N7        29.99R
PETERSBURG*    CLOUDY    57  57 100 N9        29.96F
HANOVER        CLOUDY    51  49  92 VRB5      30.00R FOG
TAPPAHANNOCK*  CLOUDY    51  51 100 CALM      29.99S
QUINTON*       CLOUDY    52  51  98 MISG      29.96S
CHARLOTTSVILLE CLOUDY    54  52  93 CALM      29.98R FOG
GORDONSVILLE*  CLOUDY    51  51 100 NE5       29.99R FOG
ORANGE*        CLOUDY    50  50 100 CALM      30.01R FOG
LOUISA*        CLOUDY    55  54  94 NE6       29.97S FOG
BUMPASS*       CLOUDY    50  50 100 E3        29.99S
FARMVILLE*     CLOUDY    55  55 100 N6        29.97R
CREWE*         CLOUDY    55  55 100 E3        29.94F
FORT PICKETT*  NOT AVBL
CHASE CITY*    CLOUDY    58  56  94 N3        29.95S
CLARKSVILLE*   CLOUDY    59  59 100 N3        29.93F
SOUTH HILL*    CLOUDY    57  57  99 N6        29.99S
LAWRENCEVILLE* CLOUDY    57  57  99 CALM      29.93F
EMPORIA*       LGT RAIN  55  55 100 E9        29.92F
$$

VAZ088>098-290600-
SOUTHEAST VIRGINIA

CITY           SKY/WX    TMP DP  RH WIND       PRES   REMARKS
NORFOLK        LGT RAIN  57  54  89 NE3       29.95S
VIRGINIA BEACH CLOUDY    59  54  83 NE7       29.94F
NORFOLK NAVAL  RAIN      57  55  93 NE5       29.97S FOG
WEST POINT*    CLOUDY    53  52  97 N5        29.96F
SALUDA*        CLOUDY    53  53 100 NE7       29.96S
NEWPORT NEWS   RAIN      56  54  93 E7        29.93F FOG
LANGLEY AFB    LGT RAIN  56  55  97 NE7       29.94F
FORT EUSTIS    MOCLDY    55  55 100 VRB3      29.91F
WILLIAMSBURG*  MOCLDY    57  55  94 CALM      29.94F
HR EXEC AP*    CLOUDY    57  55  94 NE5       29.97F
FRANKLIN*      CLOUDY    56  55  95 NE6       29.95F
US460-WAKEFLD  MOCLDY    57  54  89 CALM      29.93F
$$

VAZ020-022-025-037-045-290600-
WEST CENTRAL AND SOUTHWEST VIRGINIA

CITY           SKY/WX    TMP DP  RH WIND       PRES   REMARKS
STAUNTON*      LGT RAIN  53  53 100 CALM      29.98F
WAYNESBORO*    CLOUDY    51  50  96 MISG      29.97S
HOT SPRINGS VA FOG       55  55 100 S5        29.98S VSB<1/4
LYNCHBURG      MOCLDY    54  53  97 NE10      29.96F
DANVILLE       MOCLDY    58  57  97 NE6       29.95F
SOUTH BOSTON*  CLOUDY    58  57  96 N6        29.96R
MARTINSVILLE   CLOUDY    58  56  96 NE5       29.97F
ROANOKE        MOCLDY    58  57  97 SE8       29.97R
BLACKSBURG     CLOUDY    60  60  99 CALM      29.99S
DUBLIN*        FAIR      60  59  95 CALM      29.98S
MARION*        FAIR      67  53  61 W12G18    29.99F
HILLSVILLE*    FAIR      63  54  73 CALM      29.97F
RICHLANDS*     FAIR      64  36  36 W8        30.00S
WISE*          MOCLDY    63  48  59 NW9       30.03R
ABINGDON*      FAIR      60  60  99 CALM      29.99S
$$

MDZ021>025-VAZ099-100-290600-
SOUTHERN MARYLAND AND THE DELMARVA PENINSULA

CITY           SKY/WX    TMP DP  RH WIND       PRES   REMARKS
PATUXENT RIVER DRIZZLE   50  47  89 NE12      30.00S
BAY BRIDGE APT NOT AVBL
LEONARDTOWN    CLOUDY    48  46  93 E3        30.00F
DOVER          CLOUDY    47  47 100 NE7       30.00F
GEORGETOWN     CLOUDY    48  47  96 NE14      29.99S FOG
EASTON         CLOUDY   N/A N/A N/A NE5       30.04F
CAMBRIDGE      CLOUDY    46  46 100 CALM      29.99F
SALISBURY      CLOUDY    49  48  97 NE9       29.99R
OCEAN CITY     CLOUDY    50  48  93 NE10G21   29.97F
WALLOPS ISLAND CLOUDY    51  51 100 NE10      30.00R
ACCOMACK*      CLOUDY    52   9  17 NE3       29.98F
$$

NCZ012>017-030>032-290600-
NORTH CENTRAL AND EASTERN NORTH CAROLINA

CITY           SKY/WX    TMP DP  RH WIND       PRES   REMARKS
ROANOKE RAPIDS CLOUDY    57  55  94 NE10      29.93F
RALEIGH        FOG       66  65  96 NE8       29.91F VSB 1/2
ELIZABETH CITY CLOUDY    57  57 100 N9        29.92F
AHOSKIE*       LGT RAIN  57  56  96 N10G18    29.93F
EDENTON*       CLOUDY    61  61 100 N7        29.92R FOG
CURRITUCK*     CLOUDY    59  59 100 NW5       29.94S
KILL DEVIL HLS LGT RAIN  58  58 100 N7        29.90F VSB 1/2
MANTEO         NOT AVBL
CAPE HATTERAS  LGT RAIN  70  69  97 W9        29.92R
TARBORO*       CLOUDY    66  65  96 N9        29.91F FOG
GOLDSBORO      NOT AVBL
WASHINGTON     CLOUDY    67  65  93 S7        29.89S
GREENVILLE     PTCLDY    64  64 100 CALM      29.91F
NEW BERN       TSTM      68  64  87 N7        29.92F
WILMINGTON     CLEAR     71  65  81 SW9       29.88F
$$

VAZ048-290600-
ELSEWHERE

CITY           SKY/WX    TMP DP  RH WIND       PRES   REMARKS
HARRISBURG PA  DRIZZLE   45  42  89 SE5       30.03S FOG
BALTIMORE      CLOUDY    47  44  90 NE7       30.02S
ANNAPOLIS      CLOUDY    48  45  89 MISG      30.01S
ANDREWS AFB    CLOUDY    46  44  94 NE7       30.00S
PHILADELPHIA   CLOUDY    45  41  86 NE10      30.05F
HENDERSON NC   CLOUDY    60  60 100 NE9       29.93S FOG
GREENSBORO     CLOUDY    64  63  94 NE13      29.92S FOG
ROCKY MOUNT    CLOUDY    65  65 100 NE3       29.90S
$$

VAZ100-290600-
MARINE

STATION/POSITION TIME  TEMP    WIND        PRES    WAVE   SWELL
                       AIR SEA DIR/SP/G            HT/PER HT/PER
                 (UTC) (F)     (DEG/KT/KT) (MB)    (FT/S) (FT/S)
BRANDYWINE LGT   0400   47      70/ 17/ 19 1016.0F
CAPE MAY NJ      0400   47 58   70/  6/ 11 1015.7F
LEWES DE         0400   49 55   70/ 18/ 19 1015.6F
15NM E FENWICK I 0450   49 52              1014.0F   5/ 6
OCEAN-CITY-INLET 0400   49 54   60/  8/ 15 1014.4F
WACHAPREAGUE VA  0400   53 60   50/ 15/ 19 1014.0F
THOMAS POINT MD  0500   48 58   40/  9/ 11 1017.4F
GOOSES REEF MD   0400   50 57   50/ 10/ 14 1017.1R   2/ 3
COVE POINT MD    0400   49      60/  6/  9 1016.5R
SOLOMONS ISLAND  0400   50 60   30/  6/  8   N/A
BISHOPS HEAD MD  0400   51 59   50/  7/ 11 1014.5R
POTOMAC MD       0400   52 59   60/ 10/ 12 1014.2F   1
CAMBRIDGE MD     0400   50 61   60/ 11/ 13 1015.1R
LEWISETTA VA     0400   52 61   70/  8/ 10 1014.9F
RAPPAHANNOCK LGT 0400           10/  5/  5 1015.4R
STINGRAY PT      0400   55 61   20/ 12/ 14 1015.3R   2/ 3
YORK RVR RNG VA  0400   56      30/ 10/ 11 1014.2F
YORKTOWN VA      0400   56 62  330/  9/ 16 1014.8F
JAMESTOWN VA     0400   56 67  360/  8/ 12   N/A     0
DOMINION TERM VA 0400   57      50/  5/  8 1014.4R
KIPTOPEKE VA     0400      60   10/  9/ 13   N/A
CHES BAY BRIDGE  0400   56 59  360/ 17/ 19 1013.9R
CAPE HENRY VA    0400   55      10/ 15/ 17   N/A
CHESAPEAKE LGHT  0400   54      20/ 21/ 23 1013.9R
WILLOUBY STN VA  0400   56      10/ 16/ 19 1015.0R
CAPE HENRY BUOY  0442      56                N/A     3/ 4
CAPE CHARLES BUO 0426      56                N/A     3/ 4   2/ 7
OFFSHORE WE BUOY 0421      55                N/A     3/ 5   2/ 7
64NM E OF VA BCH 0450   56 54  330/ 14/ 25 1012.8R   3/ 7   2/ 7
DUCK PIER NC     0400   58 67  350/ 15/ 17 1012.8R
44100 DUCK FRF   0424      59                N/A     3/ 5
44056 DUCK FRF   0341      58                N/A     3/ 4
OREGON INLET NC  0400   60 70  350/  5/  9 1012.6R
HATTERAS NC      0400   71 70  210/ 13/ 18 1012.3R
DIAMOND SHLS NC  0450   73 71  220/ 17/ 19 1012.2F   4/ 6   2/11
CAPE LOOKOUT NC  0500   70     210/  8/ 10 1012.2F
$$




USA.gov is the U.S. government's official web portal to all federal, state and local government web resources and services.